Weather History for Immokalee Regional Airport [I, FL

Change the Weather History Date:

Sunday, March 16, 2014

  Actual Average (KFMY) Record (KFMY)
Temperature  
Mean Temperature 70 °F 70 °F  
Max Temperature 89 °F 80 °F 90 °F (1990)
Min Temperature 51 °F 59 °F 43 °F (1932)
Degree Days  
Heating Degree Days 0 1  
Month to date heating degree days 16  
Since 1 July heating degree days 276  
Cooling Degree Days 5 6  
Month to date cooling degree days 82  
Year to date cooling degree days 267  
Growing Degree Days 20 (Base 50)    
Moisture  
Dew Point 62 °F    
Average Humidity 64    
Maximum Humidity 100    
Minimum Humidity 37    
Precipitation  
Precipitation 0.00 in 0.10 in 0.52 in (1959)
Month to date precipitation 1.50  
Year to date precipitation 5.59  
Sea Level Pressure  
Sea Level Pressure 29.93 in    
Wind  
Wind Speed 4 mph (SSE)    
Max Wind Speed 17 mph    
Max Gust Speed 23 mph    
Visibility 8 miles    
Events      
T = Trace of Precipitation, MM = Missing Value Source: NWS Daily Summary

Daily Weather History Graph

Daily Weather History Graph

Search for Another Location

Airport:

Trip Planner

Search our weather history database for the weather conditions in past years. The results will help you decide how hot, cold, wet, or windy it might be!

Date:

Astronomy

Mar. 16, 2014 Rise Set
Actual Time 7:33 AM EDT 7:34 PM EDT
Civil Twilight 7:10 AM EDT 7:57 PM EDT
Nautical Twilight 6:43 AM EDT 8:24 PM EDT
Astronomical Twilight 6:17 AM EDT 8:51 PM EDT
Moon 7:46 PM EDT (3/16) 7:18 AM EDT (3/16)
Length of Visible Light 12h 47m
Length of Day
12h 01m
Full, 100% of the Moon is Illuminated
Mar 16
Full
Mar 16
Full
Mar 23
Last Quarter
Mar 30
New
Apr 7
First Quarter

Hourly Weather History & Observations

Time (EDT) Temp. Heat Index Dew Point Humidity Pressure Visibility Wind Dir Wind Speed Gust Speed Precip Events Conditions
12:15 AM 59.0 °F - 59.0 °F 100% 30.07 in 10.0 mi Calm Calm - 0.00 in   Clear
12:35 AM 59.0 °F - 59.0 °F 100% 30.06 in 10.0 mi Calm Calm - 0.00 in   Clear
12:55 AM 57.2 °F - 57.2 °F 100% 30.06 in 9.0 mi Calm Calm - 0.00 in   Clear
1:15 AM 57.2 °F - 57.2 °F 100% 30.05 in 10.0 mi Calm Calm - 0.00 in   Clear
1:35 AM 55.4 °F - 55.4 °F 100% 30.04 in 9.0 mi Calm Calm - 0.00 in   Clear
1:55 AM 55.4 °F - - N/A% 30.04 in 10.0 mi Calm Calm - 0.00 in   Clear
2:15 AM 55.4 °F - - N/A% 30.03 in 10.0 mi Calm Calm - 0.00 in   Clear
2:35 AM 53.6 °F - - N/A% 30.03 in 9.0 mi Calm Calm - 0.00 in   Clear
2:55 AM 53.6 °F - - N/A% 30.03 in 9.0 mi Calm Calm - 0.00 in   Clear
3:15 AM 53.6 °F - - N/A% 30.02 in 9.0 mi Calm Calm - 0.00 in   Clear
3:35 AM 53.6 °F - - N/A% 30.01 in 9.0 mi Calm Calm - 0.00 in   Clear
3:55 AM 53.6 °F - - N/A% 30.00 in 4.0 mi Calm Calm - 0.00 in   Clear
4:15 AM 53.6 °F - - N/A% 30.00 in 8.0 mi Calm Calm - 0.00 in   Clear
4:35 AM 53.6 °F - - N/A% 30.00 in 5.0 mi Calm Calm - 0.00 in   Clear
4:55 AM 53.6 °F - - N/A% 29.99 in 2.0 mi Calm Calm - 0.00 in   Clear
5:15 AM 53.6 °F - - N/A% 29.99 in 7.0 mi Calm Calm - 0.00 in   Clear
5:35 AM 51.8 °F - - N/A% 29.99 in 3.0 mi Calm Calm - 0.00 in   Clear
5:55 AM 51.8 °F - - N/A% 29.99 in 5.0 mi Calm Calm - 0.00 in   Clear
6:15 AM 53.6 °F - - N/A% 29.99 in 7.0 mi Calm Calm - 0.00 in   Clear
6:35 AM 53.6 °F - - N/A% 29.99 in 5.0 mi Calm Calm - 0.00 in   Clear
6:55 AM 53.6 °F - - N/A% 30.00 in 5.0 mi Calm Calm - 0.00 in   Partly Cloudy
7:15 AM 53.6 °F - - N/A% 30.00 in 8.0 mi Calm Calm - 0.00 in   Partly Cloudy
7:35 AM 53.6 °F - - N/A% 30.00 in 7.0 mi Calm Calm - 0.00 in   Partly Cloudy
7:55 AM 55.4 °F - - N/A% 30.00 in 7.0 mi Calm Calm - 0.00 in   Partly Cloudy
8:15 AM 57.2 °F - - N/A% 30.00 in 8.0 mi Calm Calm - 0.00 in   Partly Cloudy
8:35 AM 62.6 °F - - N/A% 30.01 in 8.0 mi ESE 5.8 mph - 0.00 in   Scattered Clouds
8:55 AM 66.2 °F - - N/A% 30.01 in 8.0 mi ESE 5.8 mph - 0.00 in   Scattered Clouds
9:15 AM 69.8 °F - 69.8 °F 100% 30.00 in 8.0 mi SE 8.1 mph - 0.00 in   Scattered Clouds
9:35 AM 73.4 °F - 68.0 °F 83% 30.00 in 8.0 mi SE 12.7 mph - 0.00 in   Partly Cloudy
9:55 AM 75.2 °F - 66.2 °F 73% 29.99 in 9.0 mi SSE 12.7 mph 19.6 mph 0.00 in   Clear
10:15 AM 77.0 °F - 66.2 °F 69% 29.99 in 8.0 mi SE 15.0 mph - 0.00 in   Clear
10:35 AM 78.8 °F - 64.4 °F 61% 29.99 in 9.0 mi SE 15.0 mph 20.7 mph 0.00 in   Clear
10:55 AM 80.6 °F 82.3 °F 64.4 °F 58% 29.99 in 8.0 mi SE 17.3 mph 20.7 mph 0.00 in   Clear
11:15 AM 80.6 °F 81.8 °F 62.6 °F 54% 29.98 in 9.0 mi SSE 15.0 mph 23.0 mph 0.00 in   Clear
11:35 AM 82.4 °F 82.9 °F 60.8 °F 48% 29.98 in 8.0 mi SE 15.0 mph 19.6 mph 0.00 in   Clear
11:55 AM 84.2 °F 84.4 °F 60.8 °F 45% 29.96 in 8.0 mi SSE 13.8 mph 20.7 mph 0.00 in   Clear
12:15 PM 84.2 °F 84.4 °F 60.8 °F 45% 29.96 in 8.0 mi SE 13.8 mph 21.9 mph 0.00 in   Partly Cloudy
12:35 PM 82.4 °F 82.9 °F 60.8 °F 48% 29.95 in 7.0 mi South 9.2 mph 20.7 mph 0.00 in   Mostly Cloudy
12:55 PM 86.0 °F 86.1 °F 60.8 °F 43% 29.93 in 9.0 mi SSE 12.7 mph 19.6 mph 0.00 in   Mostly Cloudy
1:15 PM 84.2 °F 84.4 °F 60.8 °F 45% 29.93 in 8.0 mi South 10.4 mph 21.9 mph 0.00 in   Mostly Cloudy
1:35 PM 84.2 °F 84.4 °F 60.8 °F 45% 29.92 in 9.0 mi South 10.4 mph 18.4 mph 0.00 in   Mostly Cloudy
1:55 PM 86.0 °F 84.9 °F 57.2 °F 37% 29.91 in 8.0 mi South 10.4 mph 23.0 mph 0.00 in   Scattered Clouds
2:15 PM 87.8 °F 87.1 °F 59.0 °F 38% 29.90 in 8.0 mi SSE 13.8 mph 19.6 mph 0.00 in   Scattered Clouds
2:35 PM 87.8 °F 87.1 °F 59.0 °F 38% 29.88 in 9.0 mi South 10.4 mph 21.9 mph 0.00 in   Partly Cloudy
2:55 PM 87.8 °F 87.1 °F 59.0 °F 38% 29.87 in 9.0 mi SSE 13.8 mph 18.4 mph 0.00 in   Mostly Cloudy
3:15 PM 87.8 °F 87.1 °F 59.0 °F 38% 29.86 in 10.0 mi SSW 13.8 mph 21.9 mph 0.00 in   Mostly Cloudy
3:35 PM 89.6 °F 89.5 °F 60.8 °F 38% 29.85 in 7.0 mi SSW 12.7 mph 17.3 mph 0.00 in   Scattered Clouds
3:55 PM 89.6 °F 89.5 °F 60.8 °F 38% 29.84 in 9.0 mi SSW 15.0 mph 19.6 mph 0.00 in   Scattered Clouds
4:15 PM 87.8 °F 87.1 °F 59.0 °F 38% 29.82 in 8.0 mi South 12.7 mph 23.0 mph 0.00 in   Scattered Clouds
4:35 PM 87.8 °F 87.1 °F 59.0 °F 38% 29.82 in 8.0 mi South 11.5 mph 19.6 mph 0.00 in   Mostly Cloudy
4:55 PM 87.8 °F 87.1 °F 59.0 °F 38% 29.82 in 8.0 mi SSW 12.7 mph 21.9 mph 0.00 in   Mostly Cloudy
5:15 PM 84.2 °F 83.8 °F 59.0 °F 42% 29.82 in 8.0 mi SSW 13.8 mph 20.7 mph 0.00 in   Mostly Cloudy
5:35 PM 86.0 °F 86.1 °F 60.8 °F 43% 29.81 in 7.0 mi SW 12.7 mph 20.7 mph 0.00 in   Mostly Cloudy
5:55 PM 84.2 °F 84.4 °F 60.8 °F 45% 29.82 in 9.0 mi SW 11.5 mph 18.4 mph 0.00 in   Scattered Clouds
6:15 PM 82.4 °F 82.9 °F 60.8 °F 48% 29.82 in 10.0 mi SSW 9.2 mph 18.4 mph 0.00 in   Clear
6:35 PM 82.4 °F 82.9 °F 60.8 °F 48% 29.83 in 8.0 mi South 11.5 mph 16.1 mph 0.00 in   Clear
6:55 PM 80.6 °F 81.5 °F 60.8 °F 51% 29.84 in 8.0 mi SSW 9.2 mph - 0.00 in   Partly Cloudy
7:15 PM 78.8 °F - 60.8 °F 54% 29.84 in 8.0 mi SSW 5.8 mph - 0.00 in   Partly Cloudy
7:35 PM 77.0 °F - 62.6 °F 61% 29.85 in 8.0 mi South 3.5 mph - 0.00 in   Clear
7:55 PM 75.2 °F - 62.6 °F 65% 29.85 in 9.0 mi Calm Calm - 0.00 in   Clear
8:15 PM 73.4 °F - 64.4 °F 73% 29.85 in 10.0 mi South 4.6 mph - 0.00 in   Clear
8:35 PM 71.6 °F - 64.4 °F 78% 29.85 in 9.0 mi South 5.8 mph - 0.00 in   Clear
8:55 PM 71.6 °F - 64.4 °F 78% 29.85 in 10.0 mi SSE 5.8 mph - 0.00 in   Clear
9:15 PM 69.8 °F - 64.4 °F 83% 29.85 in 9.0 mi SE 4.6 mph - 0.00 in   Clear
9:35 PM 69.8 °F - 64.4 °F 83% 29.85 in 10.0 mi SE 6.9 mph - 0.00 in   Clear
9:55 PM 69.8 °F - 64.4 °F 83% 29.85 in 10.0 mi SE 6.9 mph - 0.00 in   Clear
10:15 PM 69.8 °F - 66.2 °F 88% 29.85 in 9.0 mi SSE 8.1 mph - 0.00 in   Clear
10:35 PM 69.8 °F - 66.2 °F 88% 29.86 in 9.0 mi SE 8.1 mph - 0.00 in   Clear
10:55 PM 68.0 °F - 66.2 °F 94% 29.86 in 10.0 mi SE 6.9 mph - 0.00 in   Clear
11:15 PM 68.0 °F - 66.2 °F 94% 29.86 in 9.0 mi SE 5.8 mph - 0.00 in   Clear
11:35 PM 66.2 °F - 66.2 °F 100% 29.86 in 10.0 mi SE 5.8 mph - 0.00 in   Clear
11:55 PM 66.2 °F - 66.2 °F 100% 29.86 in 10.0 mi SSE 5.8 mph - 0.00 in   Clear